Location: Peterborough
(44.3091°N, 78.3197°W)
Time: 10:42:10
(UTC-04:00)

A-11 Canister half - Pass Details

Date: 16 September 2024
Orbit: 1515 x 1684 km, 47.2° (Epoch: 02 October)

Event Time Altitude Azimuth Distance (km) Brightness Sun altitude
Rises 00:29:32 0° 290° (WNW) 4,671 11.9 -42.4°
Reaches altitude 10° 00:32:34 10° 289° (WNW) 3,681 11.2 -42.6°
Enters shadow 00:37:30 37° 287° (WNW) 2,197 9.8 -42.7°
